When you browse on this site, cookies collect data to enhance your experience and personalize the content and advertising you see.
Visit our Privacy Policy to learn more. By continuing to use the site, you agree to this use of cookies and data.
  • In United Kingdom
  • List of Countries
  • For 7 days
  • Water Temperature
  • Weather Map
  • Weather Widgets
  • user-avatar
    Login

    Hourly Weather Stepanakert

    Today, 25 August, Sunday

    Time Temperature Precipitation Wind Pressure Humidity
    00:00 +24°C° 0 mm 2 mps 692 mmHg 43%
    01:00 +23°C° 0 mm 2 mps 692 mmHg 44%
    02:00 +23°C° 0 mm 2 mps 692 mmHg 44%
    03:00 +23°C° 0 mm 2 mps 692 mmHg 44%
    04:00 +23°C° 0 mm 2 mps 692 mmHg 44%
    05:00 +23°C° 0 mm 2 mps 693 mmHg 45%
    06:00 +23°C° 0 mm 2 mps 693 mmHg 45%
    07:00 +25°C° 0 mm 2 mps 693 mmHg 42%
    08:00 +27°C° 0 mm 2 mps 694 mmHg 38%
    09:00 +29°C° 0 mm 2 mps 694 mmHg 34%
    10:00 +30°C° 0 mm 3 mps 694 mmHg 33%
    11:00 +31°C° 0 mm 3 mps 693 mmHg 32%
    12:00 +33°C° 0 mm 3 mps 693 mmHg 30%
    13:00 +34°C° 0 mm 3 mps 693 mmHg 30%
    14:00 +34°C° 0 mm 4 mps 692 mmHg 29%
    15:00 +34°C° 0 mm 4 mps 692 mmHg 28%
    16:00 +33°C° 0 mm 3 mps 692 mmHg 30%
    17:00 +31°C° 0 mm 3 mps 692 mmHg 31%
    18:00 +30°C° 0 mm 3 mps 692 mmHg 33%
    19:00 +28°C° 0.1 mm 2 mps 692 mmHg 38%
    20:00 +26°C° 0.1 mm 2 mps 692 mmHg 42%
    21:00 +24°C° 0.1 mm 1 mps 692 mmHg 47%
    22:00 +23°C° 0.1 mm 1 mps 692 mmHg 47%
    23:00 +23°C° 0.1 mm 1 mps 692 mmHg 48%

    Tomorrow, 26 August, Monday

    Time Temperature Precipitation Wind Pressure Humidity
    00:00 +23°C° 0.1 mm 1 mps 692 mmHg 48%
    01:00 +22°C° 0 mm 1 mps 692 mmHg 47%
    02:00 +22°C° 0 mm 1 mps 692 mmHg 46%
    03:00 +22°C° 0 mm 1 mps 692 mmHg 45%
    04:00 +22°C° 0 mm 1 mps 693 mmHg 46%
    05:00 +22°C° 0 mm 1 mps 693 mmHg 46%
    06:00 +22°C° 0 mm 1 mps 693 mmHg 46%
    07:00 +24°C° 0 mm 1 mps 693 mmHg 39%
    08:00 +26°C° 0 mm 2 mps 694 mmHg 33%
    09:00 +28°C° 0 mm 2 mps 694 mmHg 26%
    10:00 +29°C° 0 mm 3 mps 694 mmHg 24%
    11:00 +30°C° 0 mm 3 mps 694 mmHg 23%
    12:00 +32°C° 0 mm 4 mps 694 mmHg 21%
    13:00 +32°C° 0 mm 4 mps 694 mmHg 22%
    14:00 +32°C° 0 mm 4 mps 693 mmHg 22%
    15:00 +32°C° 0 mm 5 mps 693 mmHg 22%
    16:00 +30°C° 0 mm 5 mps 693 mmHg 26%
    17:00 +28°C° 0 mm 4 mps 693 mmHg 31%
    18:00 +27°C° 0 mm 4 mps 693 mmHg 35%
    19:00 +25°C° 0.1 mm 4 mps 693 mmHg 43%
    20:00 +22°C° 0.1 mm 3 mps 694 mmHg 51%
    21:00 +20°C° 0.1 mm 2 mps 694 mmHg 58%
    22:00 +20°C° 0.1 mm 2 mps 694 mmHg 58%
    23:00 +19°C° 0.1 mm 2 mps 694 mmHg 58%

    Day after tomorrow, 27 August, Tuesday

    Time Temperature Precipitation Wind Pressure Humidity
    00:00 +19°C° 0.1 mm 2 mps 694 mmHg 58%
    01:00 +19°C° 0 mm 2 mps 694 mmHg 57%
    02:00 +18°C° 0 mm 2 mps 694 mmHg 57%
    03:00 +18°C° 0 mm 2 mps 694 mmHg 56%
    04:00 +18°C° 0.1 mm 2 mps 694 mmHg 57%
    05:00 +19°C° 0.1 mm 1 mps 694 mmHg 58%
    06:00 +19°C° 0.1 mm 1 mps 694 mmHg 59%
    07:00 +20°C° 0 mm 2 mps 694 mmHg 53%
    08:00 +23°C° 0 mm 2 mps 694 mmHg 48%
    09:00 +24°C° 0 mm 3 mps 694 mmHg 42%
    10:00 +26°C° 0 mm 3 mps 694 mmHg 40%
    11:00 +27°C° 0 mm 3 mps 694 mmHg 37%
    12:00 +28°C° 0 mm 4 mps 694 mmHg 35%
    13:00 +28°C° 0 mm 3 mps 693 mmHg 35%
    14:00 +29°C° 0 mm 3 mps 693 mmHg 35%
    15:00 +29°C° 0 mm 3 mps 692 mmHg 35%
    16:00 +28°C° 0 mm 3 mps 692 mmHg 40%
    17:00 +27°C° 0 mm 2 mps 692 mmHg 44%
    18:00 +26°C° 0 mm 1 mps 691 mmHg 48%
    19:00 +24°C° 0 mm 1 mps 691 mmHg 54%
    20:00 +22°C° 0 mm 1 mps 691 mmHg 59%
    21:00 +21°C° 0 mm 1 mps 692 mmHg 65%
    22:00 +21°C° 0 mm 1 mps 692 mmHg 65%
    23:00 +21°C° 0 mm 1 mps 692 mmHg 65%

    28 August, Wednesday

    Time Temperature Precipitation Wind Pressure Humidity
    00:00 +20°C° 0 mm 1 mps 692 mmHg 65%
    01:00 +20°C° 0 mm 1 mps 691 mmHg 66%
    02:00 +20°C° 0 mm 1 mps 691 mmHg 68%
    03:00 +19°C° 0 mm 1 mps 691 mmHg 69%
    04:00 +19°C° 0 mm 1 mps 691 mmHg 68%
    05:00 +20°C° 0 mm 1 mps 692 mmHg 66%
    06:00 +20°C° 0 mm 1 mps 692 mmHg 65%
    07:00 +22°C° 0 mm 1 mps 692 mmHg 57%
    08:00 +24°C° 0 mm 2 mps 692 mmHg 49%
    09:00 +26°C° 0 mm 2 mps 693 mmHg 41%
    10:00 +27°C° 0 mm 2 mps 693 mmHg 38%
    11:00 +28°C° 0 mm 3 mps 693 mmHg 35%
    12:00 +29°C° 0 mm 3 mps 692 mmHg 33%
    13:00 +30°C° 0 mm 3 mps 692 mmHg 32%
    14:00 +30°C° 0 mm 3 mps 692 mmHg 31%
    15:00 +31°C° 0 mm 3 mps 691 mmHg 30%
    16:00 +29°C° 0 mm 3 mps 691 mmHg 33%
    17:00 +28°C° 0 mm 2 mps 691 mmHg 36%
    18:00 +27°C° 0 mm 2 mps 691 mmHg 39%
    19:00 +25°C° 0 mm 2 mps 691 mmHg 44%
    20:00 +23°C° 0 mm 1 mps 691 mmHg 49%
    21:00 +22°C° 0 mm 1 mps 692 mmHg 54%
    22:00 +21°C° 0 mm 1 mps 692 mmHg 55%
    23:00 +21°C° 0 mm 1 mps 692 mmHg 56%

    29 August, Thursday

    Time Temperature Precipitation Wind Pressure Humidity
    00:00 +20°C° 0 mm 1 mps 692 mmHg 58%
    01:00 +20°C° 0 mm 1 mps 692 mmHg 58%
    02:00 +20°C° 0 mm 1 mps 692 mmHg 58%
    03:00 +19°C° 0 mm 1 mps 692 mmHg 58%
    04:00 +19°C° 0 mm 1 mps 692 mmHg 58%
    05:00 +20°C° 0 mm 1 mps 692 mmHg 58%
    06:00 +20°C° 0 mm 1 mps 693 mmHg 57%
    07:00 +22°C° 0 mm 1 mps 693 mmHg 52%
    08:00 +24°C° 0 mm 2 mps 693 mmHg 47%
    09:00 +26°C° 0 mm 2 mps 693 mmHg 41%
    10:00 +27°C° 0 mm 3 mps 693 mmHg 40%
    11:00 +28°C° 0 mm 3 mps 693 mmHg 39%
    12:00 +29°C° 0 mm 3 mps 692 mmHg 37%
    13:00 +30°C° 0 mm 3 mps 692 mmHg 37%
    14:00 +30°C° 0 mm 3 mps 691 mmHg 36%
    15:00 +30°C° 0 mm 3 mps 691 mmHg 36%
    16:00 +29°C° 0.1 mm 3 mps 691 mmHg 40%
    17:00 +27°C° 0.1 mm 3 mps 691 mmHg 44%
    18:00 +26°C° 0.1 mm 3 mps 691 mmHg 49%
    19:00 +24°C° 0.1 mm 2 mps 691 mmHg 56%
    20:00 +23°C° 0.1 mm 2 mps 691 mmHg 63%
    21:00 +21°C° 0.1 mm 1 mps 692 mmHg 70%
    22:00 +20°C° 0.1 mm 1 mps 692 mmHg 75%
    23:00 +19°C° 0.1 mm 1 mps 692 mmHg 80%

    30 August, Friday

    Time Temperature Precipitation Wind Pressure Humidity
    00:00 +19°C° 0.1 mm 1 mps 691 mmHg 86%
    01:00 +18°C° 0.1 mm 1 mps 691 mmHg 87%
    02:00 +18°C° 0.1 mm 1 mps 691 mmHg 89%
    03:00 +18°C° 0.1 mm 1 mps 691 mmHg 91%
    04:00 +18°C° 0.1 mm 1 mps 691 mmHg 91%
    05:00 +18°C° 0.1 mm 1 mps 691 mmHg 91%
    06:00 +18°C° 0.1 mm 1 mps 692 mmHg 91%
    07:00 +19°C° 0.2 mm 1 mps 692 mmHg 89%
    08:00 +18°C° 0.2 mm 2 mps 691 mmHg 86%
    09:00 +19°C° 0.2 mm 2 mps 691 mmHg 84%
    10:00 +19°C° 0.1 mm 2 mps 691 mmHg 82%
    11:00 +20°C° 0.1 mm 2 mps 691 mmHg 80%
    12:00 +20°C° 0.1 mm 3 mps 691 mmHg 78%
    13:00 +20°C° 0.2 mm 2 mps 691 mmHg 80%
    14:00 +19°C° 0.2 mm 2 mps 691 mmHg 82%
    15:00 +19°C° 0.2 mm 2 mps 690 mmHg 85%
    16:00 +18°C° 0.1 mm 2 mps 690 mmHg 86%
    17:00 +18°C° 0.1 mm 2 mps 690 mmHg 88%
    18:00 +19°C° 0.1 mm 1 mps 690 mmHg 90%
    19:00 +19°C° 0.2 mm 1 mps 690 mmHg 91%
    20:00 +18°C° 0.2 mm 1 mps 691 mmHg 92%
    21:00 +18°C° 0.2 mm 1 mps 691 mmHg 92%
    22:00 +18°C° 0 mm 1 mps 691 mmHg 93%
    23:00 +18°C° 0 mm 1 mps 691 mmHg 93%
    Show more